Waarnemingen

Advertentie
Mijn weer
La Coruna, Spanje (8001): temperatuur & dauwpunt: 19.04.2018 14:00:00 - 25.04.2018 14:00:00 (CEST)La Coruna, Spanje (8001): windsnelheid: 19.04.2018 14:00:00 - 25.04.2018 14:00:00 (CEST)La Coruna, Spanje (8001): windrichting: 19.04.2018 14:00:00 - 25.04.2018 14:00:00 (CEST)La Coruna, Spanje (8001): luchtdruk: 19.04.2018 14:00:00 - 25.04.2018 14:00:00 (CEST)La Coruna, Spanje (8001): zicht: 19.04.2018 14:00:00 - 25.04.2018 14:00:00 (CEST)La Coruna, Spanje (8001): neerslag: 19.04.2018 14:00:00 - 25.04.2018 14:00:00 (CEST)
Datum & Tijd tt [°C] td [°C] ff [km/u] ff [kn] dd ppp [hPa] vv [km] rr [mm]
25.04.2018 14:00:00 14,1 9,1 24 13 N 1026,3 25 -
25.04.2018 13:00:00 13,7 9,7 22 12 N 1026,1 10 0,0
25.04.2018 12:00:00 12,6 10,3 18 10 NO 1026,0 12 0,0
25.04.2018 11:00:00 11,8 11,3 21 11 N 1025,3 5 -
25.04.2018 10:00:00 12,3 12,0 16 9 N 1024,4 1,7 0,6
25.04.2018 09:00:00 12,3 11,5 5 3 N 1023,7 1,7 0,0
25.04.2018 08:00:00 12,4 11,0 4 2 NNO 1023,3 12 -
25.04.2018 07:00:00 12,3 10,9 5 3 OZO 1022,5 10 0,0
25.04.2018 06:00:00 12,3 11,0 5 3 ONO 1022,3 10 0,0
25.04.2018 05:00:00 12,3 10,9 9 5 N 1022,2 20 -
25.04.2018 04:00:00 12,1 10,3 8 4 NNW 1022,0 9 0,0
25.04.2018 03:00:00 12,3 10,9 11 6 NNW 1022,2 9 0,0
25.04.2018 02:00:00 12,4 11,1 8 4 N 1022,0 20 -
25.04.2018 01:00:00 12,8 11,4 13 7 N 1022,2 10 0,0
25.04.2018 00:00:00 13,0 11,6 15 8 N 1022,4 10 0,0
24.04.2018 23:00:00 12,9 12,0 16 9 N 1022,1 20 -
24.04.2018 22:00:00 13,1 11,8 18 10 N 1021,5 8 0,0
24.04.2018 21:00:00 13,3 11,7 22 12 N 1020,8 9 0,0
24.04.2018 20:00:00 13,9 11,9 22 12 N 1020,5 10 -
24.04.2018 19:00:00 14,0 12,0 15 8 NNW 1020,4 10 0,0
24.04.2018 18:00:00 14,4 12,1 15 8 NNW 1020,2 10 0,0
24.04.2018 17:00:00 14,3 12,2 18 10 N 1020,4 10 -
24.04.2018 16:00:00 14,4 12,3 18 10 NNW 1020,7 10 0,0
24.04.2018 15:00:00 14,9 12,4 16 9 NNW 1020,5 10 0,0
24.04.2018 14:00:00 15,6 12,7 13 7 NNW 1020,2 18 -
24.04.2018 13:00:00 16,5 13,0 15 8 NNW 1020,2 10 0,0
24.04.2018 12:00:00 16,8 12,1 8 4 NNW 1019,9 10 0,0
24.04.2018 11:00:00 16,1 11,9 8 4 N 1020,0 12 -
24.04.2018 10:00:00 15,2 11,6 4 2 ONO 1019,9 - 0,0
24.04.2018 09:00:00 13,0 11,2 4 2 ONO 1019,8 4,5 0,0
24.04.2018 08:00:00 11,9 10,1 4 2 WNW 1019,3 10 -
24.04.2018 07:00:00 12,3 10,2 4 2 ONO 1018,9 4,4 0,0
24.04.2018 06:00:00 12,8 10,5 4 2 O 1019,0 6 0,0
24.04.2018 05:00:00 12,9 10,6 5 3 O 1019,2 15 -
24.04.2018 04:00:00 12,9 11,0 5 3 OZO 1019,5 11 0,0
24.04.2018 03:00:00 12,8 11,4 9 5 NO 1019,9 8 0,0
24.04.2018 02:00:00 12,7 11,1 9 5 NO 1020,1 15 -
24.04.2018 01:00:00 12,9 11,0 9 5 NO 1020,3 9 0,0
24.04.2018 00:00:00 13,4 11,5 9 5 N 1020,4 8 0,0
23.04.2018 23:00:00 13,6 11,3 5 3 ONO 1020,5 15 -
23.04.2018 22:00:00 13,5 11,9 5 3 N 1019,8 7 0,0
23.04.2018 21:00:00 13,8 11,8 11 6 N 1019,1 9 0,0
23.04.2018 20:00:00 14,4 12,1 9 5 NNW 1019,0 10 -
23.04.2018 19:00:00 14,7 12,2 11 6 NNW 1019,1 10 0,0
23.04.2018 18:00:00 14,8 11,9 15 8 N 1019,4 10 0,0
23.04.2018 17:00:00 15,0 11,8 22 12 N 1019,6 11 -
23.04.2018 16:00:00 15,3 11,9 24 13 N 1020,3 11 0,0
23.04.2018 15:00:00 15,5 12,1 21 11 N 1020,3 11 0,0
23.04.2018 14:00:00 15,4 12,0 18 10 N 1020,8 25 -
23.04.2018 13:00:00 15,7 11,9 11 6 N 1021,6 10 0,0
23.04.2018 12:00:00 13,9 10,5 5 3 O 1021,7 11 0,0
23.04.2018 11:00:00 12,9 9,7 11 6 NO 1021,4 20 -
23.04.2018 10:00:00 13,3 9,2 16 9 ONO 1021,0 11 0,0
23.04.2018 09:00:00 12,0 9,2 13 7 NO 1021,0 11 0,0
23.04.2018 08:00:00 11,3 8,9 13 7 NO 1020,7 18 -
23.04.2018 07:00:00 11,6 8,8 9 5 ONO 1020,3 11 0,0
23.04.2018 06:00:00 11,6 8,8 13 7 NO 1019,9 12 0,0
23.04.2018 05:00:00 12,0 9,0 13 7 ONO 1020,1 18 -
23.04.2018 04:00:00 12,2 9,2 11 6 NO 1020,4 13 0,0
23.04.2018 03:00:00 12,0 9,0 15 8 ONO 1020,4 12 0,0
23.04.2018 02:00:00 11,9 9,1 9 5 NO 1020,5 20 -
23.04.2018 01:00:00 12,1 9,5 9 5 NO 1020,5 12 0,0
23.04.2018 00:00:00 12,3 9,1 11 6 NO 1020,4 13 0,0
22.04.2018 23:00:00 12,5 9,5 15 8 NO 1020,2 20 -
22.04.2018 22:00:00 12,7 10,2 13 7 NNO 1019,5 12 0,0
22.04.2018 21:00:00 12,7 10,2 16 9 N 1018,8 12 0,0
22.04.2018 20:00:00 13,0 10,4 9 5 N 1018,4 11 -
22.04.2018 19:00:00 13,1 10,3 16 9 N 1018,1 10 0,0
22.04.2018 18:00:00 13,5 10,8 13 7 N 1017,5 10 0,0
22.04.2018 17:00:00 13,6 11,6 13 7 N 1017,7 8 -
22.04.2018 16:00:00 14,4 11,9 11 6 NNW 1017,6 8 0,0
22.04.2018 15:00:00 14,5 11,8 5 3 NW 1017,4 9 0,0
22.04.2018 14:00:00 14,1 12,1 9 5 WNW 1017,6 8 -
22.04.2018 13:00:00 13,5 12,1 13 7 WNW 1018,0 7 0,0
22.04.2018 12:00:00 13,5 12,1 5 3 WNW 1017,7 6 0,0
22.04.2018 11:00:00 13,3 12,2 9 5 WNW 1017,5 3,0 -
22.04.2018 10:00:00 13,5 12,6 11 6 WNW 1017,2 - 0,0
22.04.2018 09:00:00 13,3 12,2 9 5 WNW 1016,8 4,7 0,0
22.04.2018 08:00:00 12,7 12,1 5 3 ZO 1016,2 6 -
22.04.2018 07:00:00 12,6 12,1 8 4 ZO 1016,3 2,1 0,0
22.04.2018 06:00:00 12,8 12,2 8 4 W 1016,8 0,6 0,0
22.04.2018 05:00:00 13,8 12,2 13 7 W 1016,7 5 -
22.04.2018 04:00:00 14,1 12,3 4 2 OZO 1017,0 7 0,0
22.04.2018 03:00:00 13,6 12,8 8 4 ZO 1017,5 4,7 0,0
22.04.2018 02:00:00 13,6 12,7 4 2 WNW 1017,4 3,0 -
22.04.2018 01:00:00 14,7 12,9 13 7 WNW 1017,7 7 0,0
22.04.2018 00:00:00 15,0 12,5 4 2 NNO 1017,5 7 0,0
21.04.2018 23:00:00 14,3 12,5 4 2 NW 1016,9 6 -
21.04.2018 22:00:00 14,3 12,7 4 2 ONO 1015,9 - 0,0
21.04.2018 21:00:00 15,4 12,7 4 2 ONO 1015,9 6 0,0
21.04.2018 20:00:00 16,4 13,1 4 2 W 1015,6 7 -
21.04.2018 19:00:00 17,4 13,5 8 4 W 1015,1 8 0,0
21.04.2018 18:00:00 18,2 13,9 4 2 W 1014,8 8 0,0
21.04.2018 17:00:00 18,8 13,2 9 5 W 1014,8 9 -
21.04.2018 16:00:00 21,0 11,9 5 3 N 1014,6 10 0,0
21.04.2018 15:00:00 19,9 12,9 4 2 ONO 1014,5 8 0,0
21.04.2018 14:00:00 19,8 13,3 4 2 NO 1014,6 12 -
21.04.2018 13:00:00 19,7 12,2 5 3 NNO 1014,9 9 0,0
21.04.2018 12:00:00 17,8 12,0 5 3 NNO 1015,2 9 0,0
21.04.2018 11:00:00 16,8 12,9 5 3 N 1015,2 8 -
21.04.2018 10:00:00 15,0 12,1 4 2 ONO 1015,4 7 0,0
21.04.2018 09:00:00 13,0 11,7 2 1 NO 1015,2 6 0,0
21.04.2018 08:00:00 12,3 10,7 0 0 N 1015,0 15 -
21.04.2018 07:00:00 12,0 11,5 13 7 ZZO 1014,8 8 0,0
21.04.2018 06:00:00 11,6 11,3 8 4 ZO 1014,9 0,6 0,0
21.04.2018 05:00:00 12,0 11,7 4 2 OZO 1015,2 0,5 -
21.04.2018 04:00:00 12,1 11,6 4 2 OZO 1015,6 0,7 0,0
21.04.2018 03:00:00 12,2 11,6 4 2 Z 1016,2 2,2 0,0
21.04.2018 02:00:00 12,6 11,7 5 3 ZO 1016,4 15 -
21.04.2018 01:00:00 12,8 11,7 5 3 OZO 1016,5 - 0,0
21.04.2018 00:00:00 13,0 11,7 4 2 ZZO 1016,9 6 0,0
20.04.2018 23:00:00 13,1 11,8 4 2 Z 1017,2 15 -
20.04.2018 22:00:00 13,2 12,1 4 2 W 1017,0 6 0,0
20.04.2018 21:00:00 13,2 12,1 15 8 N 1016,8 6 0,0
20.04.2018 20:00:00 13,3 12,0 15 8 NNW 1016,9 8 -
20.04.2018 19:00:00 13,5 11,9 16 9 NNW 1016,9 8 0,0
20.04.2018 18:00:00 13,6 12,0 13 7 NNW 1017,3 9 0,0
20.04.2018 17:00:00 13,9 11,9 16 9 NNW 1017,8 8 -
20.04.2018 16:00:00 14,5 12,2 16 9 NNW 1018,2 8 0,0
20.04.2018 15:00:00 15,6 12,5 16 9 N 1018,5 9 0,0
20.04.2018 14:00:00 15,2 12,1 18 10 N 1019,3 12 -
20.04.2018 13:00:00 15,7 12,8 15 8 NNW 1019,5 8 0,0
20.04.2018 12:00:00 15,7 13,0 9 5 N 1019,6 7 0,0
20.04.2018 11:00:00 13,8 12,4 11 6 N 1019,7 8 -
20.04.2018 10:00:00 13,5 11,7 8 4 NO 1019,9 8 0,0
20.04.2018 09:00:00 13,0 11,4 11 6 ONO 1019,7 8 0,0
20.04.2018 08:00:00 12,7 11,4 13 7 NO 1020,0 7 -
20.04.2018 07:00:00 12,5 11,2 9 5 NO 1019,8 7 0,0
20.04.2018 06:00:00 12,7 11,6 15 8 N 1020,0 6 0,0
20.04.2018 05:00:00 13,1 11,2 13 7 NNO 1020,3 20 -
20.04.2018 04:00:00 13,0 11,6 8 4 NO 1020,8 6 0,0
20.04.2018 03:00:00 13,2 11,9 5 3 N 1021,0 6 0,0
20.04.2018 02:00:00 13,3 12,0 9 5 NNO 1021,1 15 -
20.04.2018 01:00:00 13,7 11,2 11 6 NNO 1021,3 9 0,0
20.04.2018 00:00:00 13,5 12,2 11 6 N 1021,8 6 0,0
19.04.2018 23:00:00 14,0 11,9 15 8 N 1021,7 15 -
19.04.2018 22:00:00 13,9 11,9 11 6 NNO 1021,6 7 0,0
19.04.2018 21:00:00 14,2 11,9 18 10 N 1021,4 9 0,0
19.04.2018 20:00:00 14,3 12,2 24 13 N 1021,0 9 -
19.04.2018 19:00:00 14,5 12,2 22 12 N 1021,1 9 0,0
19.04.2018 18:00:00 14,7 12,6 18 10 WNW 1021,3 8 0,0
19.04.2018 17:00:00 15,2 12,7 18 10 WNW 1021,4 9 -
19.04.2018 16:00:00 15,8 12,9 21 11 WNW 1021,6 9 0,0
19.04.2018 15:00:00 15,4 12,7 11 6 NW 1021,7 10 0,0
19.04.2018 14:00:00 15,5 12,4 13 7 WNW 1021,9 15 -

tt = temperatuur
td = dauwpunt
ff = windsnelheid
dd = windrichting
ppp = luchtdruk
vv = zicht
rr = neerslag

Weerstations in de omgeving